• In Kazakhstan
  • List of Countries
  • For 7 days
  • Water Temperature
  • Satellite Maps
  • Weather Map
  • News
  • Weather Widgets
  • user-avatar
    Login

    Hourly Weather Zurawica

    Today, 18 February, Monday

    Time Temperature Precipitation Wind Pressure Humidity
    00:00 +3°C° 0 mm 2 mps 749 mmHg 86%
    01:00 +3°C° 0 mm 2 mps 749 mmHg 86%
    02:00 +4°C° 0 mm 1 mps 748 mmHg 88%
    03:00 +3°C° 0 mm 1 mps 748 mmHg 88%
    04:00 +3°C° 0 mm 1 mps 748 mmHg 88%
    05:00 +3°C° 0 mm 1 mps 748 mmHg 88%
    06:00 +3°C° 0 mm 1 mps 748 mmHg 88%
    07:00 +3°C° 0 mm 1 mps 748 mmHg 88%
    08:00 +2°C° 0 mm 0 mps 748 mmHg 87%
    09:00 +3°C° 0 mm 0 mps 748 mmHg 81%
    10:00 +6°C° 0 mm 1 mps 748 mmHg 75%
    11:00 +8°C° 0 mm 1 mps 748 mmHg 68%
    12:00 +9°C° 0 mm 1 mps 748 mmHg 65%
    13:00 +10°C° 0 mm 1 mps 748 mmHg 61%
    14:00 +11°C° 0 mm 1 mps 748 mmHg 57%
    15:00 +9°C° 0 mm 0 mps 747 mmHg 60%
    16:00 +9°C° 0 mm 0 mps 747 mmHg 63%
    17:00 +9°C° 0 mm 0 mps 747 mmHg 66%
    18:00 +9°C° 0 mm 1 mps 747 mmHg 71%
    19:00 +7°C° 0 mm 1 mps 747 mmHg 76%
    20:00 +6°C° 0 mm 1 mps 747 mmHg 80%
    21:00 +6°C° 0 mm 1 mps 747 mmHg 83%
    22:00 +5°C° 0 mm 1 mps 746 mmHg 85%
    23:00 +5°C° 0 mm 1 mps 746 mmHg 87%

    Tomorrow, 19 February, Tuesday

    Time Temperature Precipitation Wind Pressure Humidity
    00:00 +4°C° 0 mm 1 mps 746 mmHg 87%
    01:00 +4°C° 0 mm 1 mps 746 mmHg 86%
    02:00 +4°C° 0 mm 1 mps 746 mmHg 86%
    03:00 +3°C° 0 mm 1 mps 746 mmHg 86%
    04:00 +2°C° 0 mm 2 mps 746 mmHg 86%
    05:00 +2°C° 0 mm 2 mps 745 mmHg 86%
    06:00 +2°C° 0 mm 2 mps 745 mmHg 86%
    07:00 +2°C° 0 mm 2 mps 745 mmHg 86%
    08:00 +2°C° 0 mm 2 mps 745 mmHg 85%
    09:00 +4°C° 0 mm 2 mps 745 mmHg 78%
    10:00 +6°C° 0 mm 2 mps 744 mmHg 71%
    11:00 +8°C° 0 mm 3 mps 744 mmHg 63%
    12:00 +9°C° 0 mm 3 mps 744 mmHg 60%
    13:00 +10°C° 0 mm 4 mps 744 mmHg 56%
    14:00 +11°C° 0 mm 4 mps 743 mmHg 52%
    15:00 +10°C° 0 mm 4 mps 743 mmHg 55%
    16:00 +10°C° 0 mm 4 mps 743 mmHg 57%
    17:00 +9°C° 0 mm 3 mps 742 mmHg 60%
    18:00 +7°C° 0 mm 4 mps 742 mmHg 64%
    19:00 +6°C° 0 mm 4 mps 742 mmHg 68%
    20:00 +5°C° 0 mm 4 mps 742 mmHg 72%
    21:00 +4°C° 0 mm 4 mps 742 mmHg 73%
    22:00 +4°C° 0 mm 4 mps 742 mmHg 75%
    23:00 +3°C° 0 mm 5 mps 742 mmHg 76%

    Day after tomorrow, 20 February, Wednesday

    Time Temperature Precipitation Wind Pressure Humidity
    00:00 +4°C° 0 mm 4 mps 742 mmHg 78%
    01:00 +3°C° 0 mm 4 mps 742 mmHg 80%
    02:00 +3°C° 0 mm 4 mps 742 mmHg 82%
    03:00 +3°C° 0 mm 4 mps 742 mmHg 82%
    04:00 +3°C° 0 mm 4 mps 742 mmHg 81%
    05:00 +3°C° 0 mm 4 mps 742 mmHg 80%
    06:00 +3°C° 0.1 mm 4 mps 743 mmHg 84%
    07:00 +3°C° 0.1 mm 4 mps 743 mmHg 87%
    08:00 +3°C° 0.1 mm 4 mps 743 mmHg 91%
    09:00 +3°C° 0 mm 5 mps 743 mmHg 85%
    10:00 +5°C° 0 mm 5 mps 744 mmHg 78%
    11:00 +5°C° 0 mm 6 mps 744 mmHg 72%
    12:00 +5°C° 0.1 mm 6 mps 744 mmHg 68%
    13:00 +7°C° 0.1 mm 6 mps 744 mmHg 63%
    14:00 +6°C° 0.1 mm 7 mps 744 mmHg 59%
    15:00 +7°C° 0.1 mm 6 mps 745 mmHg 62%
    16:00 +5°C° 0.1 mm 6 mps 745 mmHg 65%
    17:00 +5°C° 0.1 mm 5 mps 745 mmHg 68%
    18:00 +5°C° 0.1 mm 5 mps 745 mmHg 71%
    19:00 +4°C° 0.1 mm 4 mps 746 mmHg 75%
    20:00 +4°C° 0.1 mm 3 mps 746 mmHg 78%
    21:00 +4°C° 0.1 mm 4 mps 746 mmHg 78%
    22:00 +4°C° 0.1 mm 4 mps 747 mmHg 78%
    23:00 +4°C° 0.1 mm 4 mps 747 mmHg 78%

    21 February, Thursday

    Time Temperature Precipitation Wind Pressure Humidity
    00:00 +3°C° 0 mm 4 mps 747 mmHg 78%
    01:00 +3°C° 0 mm 4 mps 747 mmHg 79%
    02:00 +3°C° 0 mm 4 mps 747 mmHg 80%
    03:00 +3°C° 0 mm 4 mps 747 mmHg 80%
    04:00 +3°C° 0 mm 4 mps 747 mmHg 81%
    05:00 +3°C° 0 mm 4 mps 747 mmHg 81%
    06:00 +3°C° 0 mm 4 mps 747 mmHg 80%
    07:00 +3°C° 0 mm 4 mps 747 mmHg 79%
    08:00 +3°C° 0 mm 4 mps 747 mmHg 78%
    09:00 +3°C° 0 mm 5 mps 747 mmHg 75%
    10:00 +5°C° 0 mm 5 mps 747 mmHg 72%
    11:00 +6°C° 0 mm 5 mps 747 mmHg 69%
    12:00 +5°C° 0 mm 6 mps 747 mmHg 68%
    13:00 +5°C° 0 mm 6 mps 747 mmHg 67%
    14:00 +5°C° 0 mm 6 mps 746 mmHg 67%
    15:00 +6°C° 0.1 mm 5 mps 746 mmHg 69%
    16:00 +5°C° 0.1 mm 5 mps 746 mmHg 71%
    17:00 +5°C° 0.1 mm 5 mps 746 mmHg 73%
    18:00 +5°C° 0.2 mm 5 mps 746 mmHg 75%
    19:00 +3°C° 0.2 mm 5 mps 746 mmHg 78%
    20:00 +3°C° 0.2 mm 5 mps 746 mmHg 81%
    21:00 +4°C° 0.2 mm 4 mps 746 mmHg 84%
    22:00 +4°C° 0.2 mm 4 mps 747 mmHg 86%
    23:00 +4°C° 0.2 mm 4 mps 747 mmHg 88%

    22 February, Friday

    Time Temperature Precipitation Wind Pressure Humidity
    00:00 +4°C° 0.2 mm 4 mps 747 mmHg 90%
    01:00 +4°C° 0.2 mm 4 mps 748 mmHg 92%
    02:00 +4°C° 0.2 mm 4 mps 748 mmHg 93%
    03:00 +4°C° 0.2 mm 4 mps 748 mmHg 94%
    04:00 +4°C° 0.2 mm 3 mps 748 mmHg 95%
    05:00 +4°C° 0.2 mm 3 mps 749 mmHg 95%
    06:00 +3°C° 0.4 mm 4 mps 749 mmHg 93%
    07:00 +1°C° 0.4 mm 4 mps 750 mmHg 90%
    08:00 0°C° 0.4 mm 5 mps 751 mmHg 88%
    09:00 0°C° 0.1 mm 5 mps 752 mmHg 80%
    10:00 0°C° 0.1 mm 4 mps 752 mmHg 73%
    11:00 0°C° 0.1 mm 4 mps 753 mmHg 66%
    12:00 0°C° 0 mm 4 mps 754 mmHg 61%
    13:00 0°C° 0 mm 4 mps 754 mmHg 56%
    14:00 +1°C° 0 mm 4 mps 755 mmHg 50%
    15:00 0°C° 0 mm 4 mps 756 mmHg 51%
    16:00 0°C° 0 mm 4 mps 756 mmHg 52%
    17:00 -1°C° 0 mm 4 mps 757 mmHg 53%
    18:00 -2°C° 0 mm 4 mps 757 mmHg 56%
    19:00 -2°C° 0 mm 4 mps 758 mmHg 58%
    20:00 -2°C° 0 mm 3 mps 759 mmHg 61%
    21:00 -4°C° 0 mm 3 mps 760 mmHg 59%
    22:00 -4°C° 0 mm 3 mps 760 mmHg 56%
    23:00 -4°C° 0 mm 3 mps 761 mmHg 54%

    23 February, Saturday

    Time Temperature Precipitation Wind Pressure Humidity
    00:00 -4°C° 0 mm 3 mps 761 mmHg 53%
    01:00 -3°C° 0 mm 2 mps 761 mmHg 51%
    02:00 -4°C° 0 mm 2 mps 762 mmHg 50%
    03:00 -2°C° 0 mm 1 mps 762 mmHg 50%
    04:00 -2°C° 0 mm 1 mps 762 mmHg 50%
    05:00 -3°C° 0 mm 0 mps 761 mmHg 49%
    06:00 -3°C° 0 mm 0 mps 762 mmHg 49%
    07:00 -3°C° 0 mm 0 mps 762 mmHg 49%
    08:00 -3°C° 0 mm 0 mps 762 mmHg 49%
    09:00 -1°C° 0 mm 1 mps 761 mmHg 43%
    10:00 0°C° 0 mm 1 mps 761 mmHg 37%
    11:00 +2°C° 0 mm 1 mps 761 mmHg 31%
    12:00 +2°C° 0 mm 2 mps 760 mmHg 30%
    13:00 +3°C° 0 mm 2 mps 759 mmHg 28%
    14:00 +3°C° 0 mm 3 mps 758 mmHg 26%
    15:00 +3°C° 0 mm 3 mps 758 mmHg 30%
    16:00 +3°C° 0 mm 3 mps 758 mmHg 33%
    17:00 +3°C° 0 mm 3 mps 757 mmHg 37%
    18:00 +1°C° 0 mm 4 mps 757 mmHg 40%
    19:00 +1°C° 0 mm 4 mps 757 mmHg 43%
    20:00 +1°C° 0 mm 5 mps 756 mmHg 46%
    21:00 +1°C° 0 mm 5 mps 756 mmHg 51%
    22:00 +1°C° 0 mm 5 mps 756 mmHg 55%
    23:00 +1°C° 0 mm 5 mps 756 mmHg 59%
    Show more